Regional Weather Roundup
Issued by NWS

Home | Current Version | Previous Version | Text Only | Print | Product List | Glossary Off
Versions: 1 2 3 4 5 6 7 8 9 10 11 12 13 14 15 16 17 18 19 20 21 22 23 24 25 26 27 28 29 30 31 32 33 34 35 36 37 38 39 40 41 42 43 44 45 46 47 48 49 50

000
ASUS43 KMKX 282359
RWRWI

WISCONSIN REGIONAL WEATHER ROUNDUP
NATIONAL WEATHER SERVICE MILWAUKEE/SULLIVAN WI
600 PM CST SAT FEB 28 2015

NOTE: "FAIR" INDICATES FEW OR NO CLOUDS BELOW 12,000 FEET WITH NO
SIGNIFICANT WEATHER AND/OR OBSTRUCTIONS TO VISIBILITY.

WIZ001-002-006>008-014>016-023>028-010100-
NORTHWEST WISCONSIN

CITY           SKY/WX    TMP DP  RH WIND       PRES   REMARKS
SUPERIOR ARPT  MOCLDY    20   3  48 S13       30.31S WCI   7
ASHLAND        CLEAR     18  -1  43 S8        30.33S WCI   8
6HR MIN TEMP:  18; 6HR MAX TEMP:  23;

HAYWARD        CLOUDY    14  -1  51 S13       30.32F WCI   0
6HR MIN TEMP:  14; 6HR MAX TEMP:  18;

SIREN          MOCLDY    17   3  54 S13       30.34F WCI   4
CUMBERLAND     CLOUDY    14   0  52 S10       30.34F WCI   1
RICE LAKE      CLOUDY    16  -1  48 S13       30.37F WCI   2
CHETEK         MOCLDY    15   0  52 SE6       30.37F WCI   6
LADYSMITH      PTCLDY    15  -2  46 S8        30.39S WCI   4
EAU CLAIRE     NOT AVBL
MENOMONIE      PTCLDY    16   1  51 S8        30.40F WCI   5
NEW RICHMOND   CLOUDY    15   1  56 S14G21    30.37S WCI   0
OSCEOLA        MOCLDY    16   4  57 S13       30.39S WCI   3
$$

WIZ003>005-009-010-017-018-010100-
NORTH CENTRAL WISCONSIN

CITY           SKY/WX    TMP DP  RH WIND       PRES   REMARKS
MANITOWISH WTR CLEAR     16  -3  43 S10       30.31S WCI   3
ARBOR VITAE    CLEAR     17  -4  38 SW8       30.33R WCI   6
WOODRUFF       CLEAR     17  -4  38 SW8       30.33R WCI   6
RHINELANDER    CLEAR     13  -5  44 SW8       30.34F WCI   2
6HR MIN TEMP:  13; 6HR MAX TEMP:  18;

EAGLE RIVER    CLEAR     16  -8  33 S6        30.32S WCI   8
LAND O LAKES   CLEAR     18  -5  36 SW6       30.32R WCI   9
PHILLIPS       PTCLDY    15  -1  48 S5        30.33S WCI   7
TOMAHAWK       CLEAR     13  -3  48 CALM      30.36F
MEDFORD        CLEAR     13  -3  47 S5        30.36F WCI   6
MERRILL        CLEAR     16  -4  41 S6        30.38F WCI   7
$$

WIZ029-030-035-036-043>047-010100-
CENTRAL WISCONSIN

CITY           SKY/WX    TMP DP  RH WIND       PRES   REMARKS
WAUSAU         CLEAR     15  -5  40 S8        30.38F WCI   4
6HR MIN TEMP:  12; 6HR MAX TEMP:  18;

MOSINEE        CLEAR     14  -2  48 SW7       30.40F WCI   4
MARSHFIELD     CLEAR     16  -3  43 SW9       30.40S WCI   4
6HR MIN TEMP:  13; 6HR MAX TEMP:  19;

STEVENS POINT  CLEAR     16  -3  43 S8        30.42F WCI   5
WAUPACA        CLEAR     19  -1  40 SE8       30.46F WCI   9
WAUTOMA        NOT AVBL
WISC RAPIDS    CLEAR     15  -6  39 SW8       30.45S WCI   4
6HR MIN TEMP:  13; 6HR MAX TEMP:  19;

CAMP DOUGLAS   NOT AVBL
$$

WIZ011>013-019>022-031-037>040-048>050-010100-
NORTHEAST WISCONSIN

CITY           SKY/WX    TMP DP  RH WIND       PRES   REMARKS
ANTIGO         CLEAR     12  -3  53 S9        30.38S WCI  -1
SHAWANO        CLEAR     19  -1  41 S6        30.47S WCI  11
OCONTO         CLEAR     16   1  49 S5        30.49S WCI   9
STURGEON BAY   CLEAR     18   1  49 S6        30.50F WCI   9
6HR MIN TEMP:  16; 6HR MAX TEMP:  21;

GREEN BAY      CLEAR     16   1  51 S8        30.49F WCI   5
6HR MIN TEMP:  15; 6HR MAX TEMP:  19;

MANITOWOC      NOT AVBL
APPLETON       PTCLDY    16   0  48 SW8       30.48F WCI   5
CLINTONVILLE   CLEAR     18   1  49 S9        30.46F WCI   6
OSHKOSH        CLEAR     15   0  51 S8        30.49F WCI   4
6HR MIN TEMP:  14; 6HR MAX TEMP:  18;

$$

WIZ032>034-041-042-053>061-010100-
SOUTHWEST WISCONSIN

CITY           SKY/WX    TMP DP  RH WIND       PRES   REMARKS
LA CROSSE      CLOUDY    18   0  45 S10       30.45F WCI   6
6HR MIN TEMP:  12; 6HR MAX TEMP:  19;

SPARTA         PTCLDY    17  -4  40 S5        30.46F WCI  10
VIROQUA        CLOUDY    15   0  51 S7        30.41F WCI   5
BOSCOBEL       CLOUDY    16   1  51 CALM      30.50S
6HR MIN TEMP:  14; 6HR MAX TEMP:  19;

PRAIRIE DU CHI CLOUDY    17  -3  41 SE5       30.49S WCI  10
PLATTEVILLE    MOCLDY    14   5  67 E9        30.47S WCI   1
$$

WIZ056-057-062-063-064-067-068-010100-
SOUTH CENTRAL WISCONSIN

CITY           SKY/WX    TMP DP  RH WIND       PRES   REMARKS
REEDSBURG      PTCLDY    15   0  50 S5        30.47S WCI   7
BARABOO/DELLS  PTCLDY    15   0  52 S10       30.46F WCI   2
LONE ROCK      NOT AVBL
MINERAL POINT  PTCLDY    16   3  57 SE7       30.45S WCI   6
MADISON        MOCLDY    15   0  51 S7        30.48F WCI   5
6HR MIN TEMP:  12; 6HR MAX TEMP:  17;

MIDDLETON      CLOUDY    16  -1  48 S5        30.49F WCI   9
WATERTOWN      PTCLDY    14   0  52 S3        30.50F
MONROE         MOCLDY    14   5  67 SE7       30.46F WCI   4
JANESVILLE     PTCLDY    18   3  53 SE8       30.50F WCI   7
$$

WIZ051-052-058>065-066-070>072-010100-
SOUTHEAST WISCONSIN

CITY           SKY/WX    TMP DP  RH WIND       PRES   REMARKS
MILWAUKEE      MOCLDY    18   1  47 S6        30.53F WCI  10
6HR MIN TEMP:  13; 6HR MAX TEMP:  18;

WAUKESHA       MOCLDY    16   0  48 SW3       30.52F
MILWAUKEE/TIMM CLEAR     18   0  45 S8        30.53F WCI   7
RACINE         PTCLDY    19   7  59 S8        30.54F WCI   9
6HR MIN TEMP:  14; 6HR MAX TEMP:  19;

BURLINGTON     MOCLDY    14   3  61 CALM      30.51F
KENOSHA        MOCLDY    18   7  62 SE8       30.51F WCI   8
6HR MIN TEMP:  15; 6HR MAX TEMP:  20;

FOND DU LAC    CLEAR     15   1  53 S6        30.50S WCI   6
6HR MIN TEMP:  15; 6HR MAX TEMP:  19; 6HR PCP: TRACE;

SHEBOYGAN      CLEAR     16   4  59 S8        30.51S WCI   5
6HR MIN TEMP:  16; 6HR MAX TEMP:  20;

WEST BEND      CLEAR     18  -4  38 S5        30.50F WCI  11
JUNEAU         CLEAR     14   1  57 S6        30.50F WCI   5
$$

LSZ147-162-010100-
LAKE SUPERIOR

STATION/POSITION TIME  TEMP    WIND        PRES    WAVE
                       AIR SEA DIR/SP/G            HT/PER
                 (UTC) (F)     (DEG/KT/KT) (MB)    (FT/S)
DEVILS ISLAND    2300   22     200/  8/ 11 1027.8F
PORT WING        2300   21     190/ 13/ 19 1026.8F
SAXON HARBOR     2300   23     220/ 12/ 15 1027.4F
$$

LMZ867-665-643>646-010100-
LAKE MICHIGAN

STATION/POSITION TIME  TEMP    WIND        PRES    WAVE
                       AIR SEA DIR/SP/G            HT/PER
                 (UTC) (F)     (DEG/KT/KT) (MB)    (FT/S)
NORTHPORT PIER   2300   20     200/  5/ 13 1032.2F
SISTER BAY       2213   27     280/ 10/ 10   N/A
KEWAUNEE LAKESHO 2300   20     190/ 15/ 19 1032.4
SHEBOYGAN LAKESH 2300   19     180/ 14/ 16 1035.4F
PORT WASHINGTON  2300   21     170/ 13/ 15 1034.5
MILWAUKEE LAKESH 2300   19     200/  7/  9   N/A
KENOSHA   LAKESH 2300   19     160/ 12/ 14 1034.2F
$$

TC  - TEMPERATURE IN CELSIUS
VSB - VISIBILITY IN STATUTE MILES
WCI - WIND CHILL INDEX
HX  - HEAT INDEX



USA.gov is the U.S. government's official web portal to all federal, state and local government web resources and services.